Wind_Speed
31 28 27 26 26 25 25 24 24 25 25 26 25 24 23 22 22 22 22 22 21 20 21 21 22 23 24 23 23 23 24 25 25 26 26 26 26 26 27 28 29 30 31 31 32 33 33 33 34 35 36 37 38 38 38 37 38 39 40 40 41 42 42 41 40 38 37 34 29 26 25 25 26 26 26 26 27 30 33 36 39 40 42 43 45
33 31 29 28 27 26 25 25 26 26 26 26 26 25 24 24 23 23 24 23 23 23 23 23 24 25 26 26 25 25 25 26 27 27 27 27 28 28 28 30 31 32 33 34 34 35 35 35 36 36 37 38 39 39 39 39 39 40 41 42 42 43 44 43 42 40 39 37 33 29 27 26 26 27 27 27 28 30 33 36 39 42 44 44 45
33 31 31 30 29 28 28 28 27 27 27 26 26 25 25 25 25 26 26 26 26 26 25 26 26 27 28 28 27 27 27 27 28 29 29 29 30 30 30 31 33 34 35 36 37 37 37 38 38 38 39 39 40 40 41 41 41 42 42 43 44 45 45 46 45 43 41 39 36 33 29 28 28 29 30 30 31 32 34 37 39 43 46 47 46
34 33 33 32 31 30 31 31 29 28 28 27 26 26 26 27 27 28 28 28 28 28 28 28 29 29 29 29 29 29 29 30 30 30 30 31 31 32 32 33 34 36 37 38 39 39 39 40 40 41 41 41 42 42 42 43 43 44 44 45 46 46 47 47 48 46 44 41 39 36 32 30 29 30 31 32 33 35 36 38 41 45 49 50 49
35 35 35 34 34 34 34 34 32 31 30 28 28 28 28 29 30 30 30 31 31 31 31 31 31 31 31 31 31 31 31 32 33 33 32 32 32 33 34 35 36 38 39 40 41 41 42 42 42 43 43 44 44 44 44 44 45 45 46 46 47 48 48 48 49 49 47 44 42 39 34 32 31 31 32 33 35 36 38 40 42 47 51 53 51
37 37 36 36 37 38 37 37 36 34 32 31 31 31 32 32 32 32 33 34 34 34 34 33 34 34 33 33 34 34 34 35 35 35 34 34 34 34 35 37 38 39 41 42 43 44 44 44 45 45 46 46 46 47 47 47 47 47 48 48 49 49 50 49 50 50 50 47 44 41 37 33 32 32 33 35 36 37 39 41 44 48 52 55 54
38 38 37 38 39 39 39 39 37 35 33 33 34 34 34 34 34 34 35 36 37 37 36 36 36 36 36 36 36 36 36 37 37 36 35 35 35 36 37 39 40 42 43 44 45 47 47 47 47 47 48 48 49 49 49 49 50 49 50 50 50 50 51 50 50 51 51 50 46 43 38 34 32 32 33 35 37 38 40 43 46 49 53 57 57
38 38 37 37 38 39 39 38 36 35 35 36 36 36 36 36 36 37 37 38 39 39 39 39 39 39 38 38 38 38 38 38 38 37 37 37 38 38 39 41 43 44 45 46 48 49 50 50 49 50 50 51 52 52 52 52 52 53 52 52 52 52 52 51 51 51 51 51 48 44 39 35 33 32 33 34 36 38 41 45 49 51 54 57 59
39 39 38 38 39 39 38 37 36 35 36 37 38 37 38 38 39 39 39 40 40 41 41 41 40 40 40 39 39 39 39 39 39 39 39 39 40 41 42 43 45 46 47 48 50 51 52 52 52 53 53 54 55 55 55 56 55 55 55 55 54 53 52 52 52 52 51 50 48 45 41 37 34 32 32 34 36 38 42 47 51 53 55 58 59
40 40 39 39 39 38 38 38 37 37 38 39 39 39 40 40 40 41 41 41 41 41 41 41 41 40 40 40 40 40 41 41 41 41 42 42 44 45 45 46 47 49 50 50 52 53 53 54 55 56 57 57 58 58 58 59 58 57 57 57 56 54 53 53 53 53 51 49 47 46 42 38 35 33 32 33 35 38 43 48 52 54 56 58 59
41 41 41 40 39 39 39 39 38 38 40 41 41 41 41 42 42 42 42 42 42 41 42 42 42 41 41 41 42 42 43 44 44 45 45 45 47 48 49 49 50 51 52 52 53 54 55 56 57 58 60 60 60 60 60 60 60 59 58 58 58 57 55 54 52 52 51 48 46 45 42 38 35 34 33 34 35 39 43 48 53 55 57 58 59
43 43 42 42 41 41 41 40 39 40 41 42 42 42 42 43 43 43 43 43 43 43 43 43 43 43 44 44 45 45 46 47 48 48 48 49 50 50 51 52 52 53 54 55 56 56 57 58 59 60 62 62 62 62 61 61 61 61 60 59 59 58 56 53 51 50 48 46 45 44 42 38 36 34 34 36 37 40 44 48 53 55 57 59 60
43 43 43 43 43 43 42 41 41 42 42 43 43 43 43 44 44 44 44 44 44 45 46 46 46 46 47 48 48 49 50 51 51 52 52 52 52 53 54 54 55 56 57 57 58 59 60 61 61 62 62 63 64 63 62 62 62 61 60 59 58 57 54 51 48 46 45 44 43 42 40 38 36 34 35 37 38 41 44 48 52 56 57 59 61
44 45 44 45 45 44 43 42 43 44 44 44 44 45 45 45 46 46 46 47 48 48 49 49 49 50 50 51 51 52 52 54 55 55 55 55 55 56 56 57 58 59 59 59 60 61 62 63 63 63 62 63 63 63 62 61 60 58 57 56 54 53 51 48 46 44 42 42 41 39 38 38 36 34 35 38 39 41 44 48 53 56 57 59 62
47 47 47 47 47 46 46 45 46 46 46 47 47 48 48 48 49 49 49 50 51 51 52 52 52 53 53 53 54 55 56 57 58 59 59 59 59 59 59 59 60 60 60 60 61 61 62 62 61 61 60 59 60 60 58 57 56 54 53 51 50 49 48 45 43 42 40 39 38 37 36 37 36 35 36 39 40 41 44 49 53 56 57 59 62
49 50 50 50 50 49 49 48 48 49 49 50 51 51 51 52 52 52 52 53 54 54 54 55 55 56 56 57 58 59 59 59 60 61 61 61 60 59 59 58 58 58 58 57 57 57 57 58 57 56 56 55 56 56 54 51 51 51 49 48 46 45 44 43 41 39 38 36 36 36 36 36 37 37 38 40 40 41 44 50 54 55 57 59 62
52 52 52 52 52 52 52 52 52 52 53 53 54 54 54 55 55 55 55 56 56 57 57 57 57 58 58 59 58 58 58 58 58 58 59 58 57 55 53 53 52 51 51 51 52 53 53 53 53 53 53 52 52 54 52 48 46 47 46 44 42 41 40 39 37 35 33 33 34 35 36 37 38 38 40 41 41 42 46 51 54 55 57 59 61
53 53 53 53 53 52 52 52 53 53 53 54 54 54 54 54 54 53 54 54 54 55 55 55 55 55 55 54 54 53 52 52 52 53 53 53 52 50 48 47 47 47 47 48 49 49 50 51 51 51 51 50 50 51 51 46 43 42 43 41 39 38 36 33 33 32 30 31 33 35 37 39 40 41 42 41 40 42 47 52 54 55 57 60 62
49 49 49 48 48 48 48 49 49 48 48 49 49 49 49 48 48 48 48 49 48 49 49 50 50 50 49 49 48 48 48 48 48 49 49 49 49 48 47 46 45 46 46 46 46 47 48 49 50 49 49 48 47 47 48 46 41 38 37 37 37 35 30 27 28 29 29 31 34 37 40 42 42 42 43 41 40 43 49 52 53 55 58 61 63
41 41 42 42 42 43 43 43 43 42 42 43 43 43 44 44 44 44 44 44 44 45 45 46 47 47 47 46 46 46 47 46 46 47 48 48 48 48 46 45 46 46 45 45 45 45 46 47 48 48 48 47 46 45 45 45 40 34 32 33 34 31 25 24 27 30 31 35 37 39 42 43 43 43 43 42 42 45 50 52 53 55 59 61 64
37 37 38 39 39 40 40 39 39 39 39 40 40 41 42 42 42 42 43 43 44 44 44 44 44 45 45 45 45 46 46 46 45 46 46 46 47 46 45 45 46 46 45 45 45 46 46 46 46 46 46 46 45 43 42 42 36 29 27 28 28 26 24 24 27 31 34 36 37 38 41 43 43 42 41 41 43 47 51 52 54 56 59 62 64
37 37 37 37 38 39 39 38 38 38 38 39 40 41 41 41 41 41 42 43 43 43 43 43 42 43 43 44 44 45 46 45 45 46 47 47 47 46 46 45 46 46 46 46 47 47 47 45 45 45 45 45 44 41 39 36 30 23 22 23 24 26 26 25 28 32 35 37 38 39 41 42 41 40 38 38 42 47 50 52 54 57 60 62 65
38 38 38 38 38 39 39 39 39 39 39 40 40 41 41 41 41 41 42 42 42 43 42 42 41 42 43 44 45 46 46 46 47 48 50 50 49 49 48 46 45 45 45 46 48 49 48 46 45 43 42 43 43 40 36 31 24 20 21 23 26 29 31 31 32 34 36 38 40 42 42 41 40 38 37 38 41 47 49 51 53 56 59 62 64
40 40 40 40 40 40 41 41 41 41 41 41 41 42 42 42 42 42 43 43 43 44 44 44 44 44 45 46 47 48 48 49 50 51 52 53 52 52 51 50 48 47 46 47 49 49 49 47 44 42 41 42 41 37 35 33 32 33 36 39 41 42 41 39 39 39 39 40 42 43 44 43 42 40 39 40 43 47 50 51 53 56 59 62 63
42 43 43 43 43 43 43 43 44 44 44 44 44 44 44 44 44 44 44 45 45 45 46 46 47 47 48 48 48 49 50 51 52 53 54 55 55 55 55 54 52 50 48 48 50 50 49 46 42 39 38 37 37 39 44 48 50 51 51 52 52 51 49 46 46 46 44 41 41 43 44 45 45 44 45 46 46 48 50 53 55 56 59 61 63
45 45 46 46 46 46 46 46 47 47 47 48 48 48 48 47 47 48 47 47 47 47 47 47 48 49 49 50 50 51 52 53 55 55 56 57 58 59 59 57 56 54 52 51 52 52 49 44 40 39 38 38 43 51 56 59 59 57 54 53 54 54 53 50 50 50 47 43 43 44 44 44 45 45 47 49 48 47 51 54 56 57 58 60 62
48 48 48 48 49 48 49 49 49 50 50 51 51 51 51 51 51 51 51 51 50 50 49 49 49 49 50 50 51 52 53 55 56 56 56 57 59 60 61 61 61 59 56 55 56 55 51 46 46 46 45 46 51 55 54 54 56 56 54 52 52 54 54 51 50 50 48 46 45 45 44 46 47 47 48 50 49 49 53 56 57 58 58 59 62
51 51 51 51 51 51 51 51 52 53 53 53 53 53 53 53 54 54 54 53 53 53 52 51 51 51 52 52 53 53 55 56 57 57 56 56 58 60 61 63 64 62 59 58 58 57 54 53 53 51 48 49 52 55 55 55 57 55 52 50 51 51 52 50 48 49 49 49 47 45 44 46 48 49 51 51 50 52 54 56 58 58 58 59 62
53 53 54 53 53 54 54 54 54 55 55 55 55 55 56 56 56 56 56 56 56 56 55 54 54 54 55 55 55 55 57 58 58 59 58 58 60 62 62 63 65 64 61 59 58 57 56 56 55 54 54 58 60 61 62 63 63 60 57 56 55 53 52 50 49 49 51 52 49 45 43 46 49 50 51 51 51 53 55 57 58 59 58 59 61
56 56 56 56 56 57 57 57 57 57 58 58 57 58 58 59 59 59 59 59 60 59 58 58 58 57 58 59 58 58 59 60 61 61 61 62 63 64 66 66 66 64 63 60 58 58 58 57 56 57 62 65 64 61 60 58 55 54 52 51 50 48 47 45 43 45 50 51 47 41 41 45 47 47 48 49 52 54 55 57 58 59 58 59 61
58 58 58 59 59 59 59 59 60 60 61 60 60 60 61 62 62 62 62 63 63 63 63 62 62 62 62 62 63 63 63 63 63 64 65 66 66 66 67 67 65 65 64 61 58 59 60 60 58 59 61 61 58 56 53 47 43 42 42 41 40 39 39 40 41 47 54 53 46 41 40 42 44 44 46 49 52 54 55 57 59 59 59 59 61
61 61 61 61 62 62 62 62 62 63 63 63 63 63 63 64 64 64 65 65 66 66 66 66 66 66 66 67 67 68 67 66 66 66 67 66 65 63 62 61 61 62 62 59 57 59 62 63 61 58 56 54 51 49 45 40 37 37 37 38 39 37 37 44 52 60 63 57 49 45 46 46 47 48 48 49 52 54 55 57 60 60 59 60 61
64 64 64 64 65 65 65 65 65 65 66 66 66 65 65 65 66 67 68 68 68 68 69 69 69 70 70 71 72 72 72 70 68 67 65 63 61 60 59 58 57 58 59 58 56 58 61 63 61 58 54 48 44 41 38 36 38 41 43 48 52 53 52 56 63 68 66 56 46 45 49 52 52 51 51 51 53 56 56 58 60 60 60 60 62
67 67 68 68 68 69 69 69 69 69 69 69 69 69 68 68 68 69 70 70 70 70 71 71 71 72 72 73 74 74 73 70 66 64 62 60 59 60 60 59 59 58 58 57 56 58 61 60 58 56 51 44 38 37 37 38 40 46 52 59 65 68 68 66 65 63 57 49 44 47 52 53 51 51 51 52 55 57 57 59 60 60 59 60 62
70 71 71 72 72 72 72 72 72 72 72 72 72 72 72 71 71 71 72 72 72 73 73 73 73 72 71 71 71 69 66 62 59 58 58 58 59 60 61 62 61 59 58 57 58 59 59 57 54 50 45 39 36 38 40 41 41 46 53 59 64 67 67 64 60 53 46 44 47 54 56 53 49 49 51 53 55 57 58 59 59 60 60 61 63
74 74 75 75 75 75 75 75 75 75 75 75 75 74 74 74 73 73 74 74 74 74 73 73 72 70 68 66 63 59 56 54 54 56 55 55 58 61 63 64 61 58 57 57 58 58 58 55 50 44 39 37 38 39 41 42 42 45 50 53 57 59 59 58 55 50 46 48 52 54 53 52 50 51 53 54 57 60 61 60 59 60 61 63 65
77 77 78 77 78 78 78 77 77 77 77 77 76 76 76 76 75 74 74 74 73 72 70 69 68 65 62 59 56 53 52 54 56 56 54 54 58 60 64 66 61 56 55 55 56 57 57 55 50 44 41 41 41 41 42 43 43 44 46 47 51 53 54 56 57 54 51 53 53 51 51 52 52 51 53 56 59 62 62 61 60 61 62 65 67
80 80 80 80 80 80 80 80 80 79 79 78 77 77 77 76 74 73 72 70 68 67 66 66 64 61 59 57 55 53 53 54 54 53 51 55 59 61 65 67 60 53 52 53 55 55 55 53 51 49 47 45 39 34 36 38 37 38 40 44 50 52 51 55 61 61 57 55 54 53 54 54 51 51 54 57 60 63 63 62 62 62 64 67 69
82 82 82 82 82 82 82 82 82 81 80 79 78 78 77 76 74 74 72 70 69 67 65 64 63 62 61 59 58 56 53 52 53 52 54 59 63 64 66 66 58 51 51 53 55 55 53 52 52 50 47 43 35 28 28 31 33 36 38 43 50 54 55 59 66 65 60 57 57 57 58 56 52 52 56 58 60 62 63 62 62 64 66 69 71
84 84 84 84 84 84 84 83 82 81 81 79 79 79 79 78 77 75 73 71 70 68 65 64 65 66 65 63 61 58 56 56 57 58 60 63 66 66 67 63 56 51 52 53 56 55 49 46 49 49 44 37 29 24 24 25 29 36 39 42 47 52 58 65 69 64 59 58 60 61 60 57 54 54 58 60 62 63 63 63 64 66 68 71 73
86 86 85 85 84 84 83 82 81 81 81 81 81 81 81 80 77 74 71 69 68 66 65 66 67 67 66 65 62 60 59 60 62 64 66 68 68 69 68 63 56 53 53 55 58 56 48 43 45 47 44 38 31 24 21 21 25 32 37 39 42 46 53 61 65 63 60 59 60 61 60 58 57 57 60 61 62 63 64 64 66 68 70 73 76
85 84 84 84 84 84 84 84 84 84 84 84 83 82 80 77 74 71 69 68 67 66 66 66 67 67 66 65 63 62 63 64 66 68 70 71 71 71 68 63 57 54 54 57 59 58 53 49 48 47 45 42 35 28 22 18 20 25 29 33 37 42 48 55 60 62 61 61 62 62 63 63 62 62 63 62 62 62 62 63 66 69 72 75 77
84 84 85 85 86 86 86 86 86 85 84 84 82 81 78 75 73 71 70 70 69 69 69 68 68 67 66 65 65 65 67 68 70 71 71 72 74 74 69 63 59 54 53 56 59 58 57 55 51 47 45 42 38 31 21 15 16 22 31 39 44 48 53 58 61 62 64 66 66 65 65 65 65 65 64 62 61 60 61 64 67 70 73 75 77
83 83 84 84 84 85 84 84 82 81 80 79 78 76 75 73 72 72 72 72 72 72 70 70 69 69 69 69 70 70 72 72 72 71 72 74 77 75 69 64 59 54 52 54 57 58 59 58 53 47 45 45 44 37 27 22 24 34 46 56 61 61 62 64 65 66 67 66 64 63 64 65 65 66 64 62 61 62 65 68 71 73 75 77 78
79 79 80 80 80 80 79 79 78 76 75 75 75 74 73 72 73 73 73 73 73 72 71 71 71 72 72 73 74 74 74 73 72 73 75 76 77 75 70 65 60 55 52 53 55 56 59 61 56 48 46 49 51 47 39 36 41 50 59 69 76 75 70 67 67 66 64 62 60 61 64 65 66 66 65 64 65 67 70 72 75 76 78 79 79
73 72 72 73 74 75 76 76 76 75 75 74 74 74 73 73 73 73 73 73 74 75 75 76 76 76 76 76 76 76 75 74 74 75 77 78 77 75 70 66 62 58 54 53 54 56 59 62 59 52 46 49 54 55 50 47 50 58 65 72 79 78 71 66 64 63 62 62 62 63 65 66 67 67 67 68 71 72 74 76 77 78 78 79 78
72 71 71 71 72 73 74 75 76 77 77 76 76 75 75 75 75 75 76 77 79 80 81 81 81 80 80 79 79 78 77 77 77 78 79 79 79 76 73 70 66 62 58 55 54 55 58 62 63 57 50 50 56 60 58 55 55 61 67 72 77 76 70 64 61 62 63 64 65 65 67 68 68 69 71 72 74 75 75 76 77 77 77 77 77
76 74 74 74 74 74 74 76 77 79 80 81 80 80 81 81 81 82 83 84 84 85 86 86 86 85 84 83 82 81 81 81 80 79 79 79 80 79 77 74 71 67 62 58 56 55 56 61 64 63 57 55 59 64 65 63 61 63 66 68 70 70 67 64 62 63 64 64 65 67 68 70 71 72 73 74 75 75 75 75 75 76 76 77 78
84 80 78 78 78 79 80 81 82 83 85 86 86 87 87 88 88 89 89 89 89 90 91 91 90 90 88 87 85 84 84 82 80 79 78 80 81 81 80 78 76 72 67 61 58 56 56 59 64 66 64 61 62 67 71 72 70 69 70 70 70 70 69 68 68 68 68 69 70 71 72 72 73 74 74 75 75 75 76 76 76 77 79 81 82
93 90 89 88 87 88 88 89 89 90 91 91 92 93 93 93 93 93 92 92 92 92 93 93 93 92 91 90 88 87 85 84 82 81 80 81 82 83 82 81 79 78 74 68 63 61 59 59 63 67 69 67 66 68 74 79 81 80 79 79 78 77 74 72 71 71 71 72 73 74 75 75 76 76 76 77 77 78 78 79 80 81 82 83 84
99 99 99 99 98 98 97 97 96 95 94 93 93 94 95 95 93 92 92 92 92 92 92 92 92 93 92 92 91 90 88 87 85 83 82 82 83 85 85 85 83 83 81 78 72 68 65 63 64 67 70 70 70 70 74 80 86 88 89 88 87 85 81 77 74 73 72 73 73 74 75 76 77 78 79 80 80 81 82 82 83 83 84 84 85
Wind_Direction
223 226 230 233 236 240 245 249 253 254 255 256 258 260 261 263 266 269 271 272 273 275 279 283 288 291 293 295 297 300 301 302 303 303 304 304 304 306 309 311 313 315 318 320 322 323 324 326 328 328 329 330 331 332 333 334 334 335 336 337 339 340 341 342 343 343 344 341 332 325 325 328 331 333 334 337 342 346 348 351 353 354 353 353 354
224 226 229 232 235 239 243 246 249 251 252 254 257 260 262 263 264 265 266 266 269 272 276 281 285 289 291 294 296 298 299 298 298 299 301 302 302 304 306 308 310 313 315 317 319 321 322 323 325 325 326 327 328 329 330 330 331 331 332 333 335 337 338 339 340 340 341 340 334 324 322 326 328 330 331 331 334 339 342 345 348 350 350 350 350
228 230 232 234 236 238 240 242 244 248 250 252 254 256 258 259 260 261 262 264 267 271 275 280 283 286 289 292 295 296 295 295 295 298 300 301 301 303 305 307 309 311 313 315 317 318 319 320 321 322 323 324 325 326 326 327 328 328 329 331 332 333 334 335 336 336 337 338 335 327 320 322 326 329 330 330 330 333 337 341 344 346 347 347 347
231 233 235 237 239 240 241 242 243 245 247 249 251 253 254 256 257 259 261 264 268 271 275 278 281 284 286 289 291 292 293 293 295 296 298 299 300 302 304 305 307 309 311 312 314 315 316 317 318 319 320 321 321 322 323 324 325 326 327 328 328 329 331 332 332 333 334 334 334 330 322 319 323 328 329 328 328 330 333 336 340 342 345 345 345
232 234 237 239 241 243 243 244 244 245 246 248 250 251 252 254 256 258 262 265 267 270 273 276 279 281 284 286 288 290 292 294 295 295 296 298 299 301 302 304 305 307 308 310 311 313 313 314 315 317 317 317 318 318 319 320 322 323 324 324 325 326 327 329 329 329 330 330 331 330 324 317 319 324 327 327 326 327 330 334 337 340 342 344 344
232 234 236 238 240 242 243 245 246 245 246 247 248 250 251 252 254 258 261 265 267 270 272 275 278 281 282 284 287 289 291 293 293 294 295 296 298 299 300 302 303 304 306 307 308 309 310 311 313 314 314 314 315 315 316 318 319 320 321 322 322 323 324 325 326 326 326 326 328 328 325 317 315 320 324 326 326 326 329 332 335 338 340 342 342
232 234 235 237 240 241 243 244 245 246 247 248 249 249 251 253 255 258 261 264 268 270 273 275 278 280 282 284 286 288 290 291 292 293 294 295 296 297 298 300 301 302 303 305 306 307 308 309 310 310 311 312 312 313 314 315 316 317 318 319 319 320 320 321 323 323 322 323 324 326 324 316 312 316 321 324 325 326 329 332 334 336 339 340 341
233 235 237 239 242 244 245 246 247 249 250 251 252 253 255 257 259 261 263 266 269 272 274 277 279 281 283 285 286 288 289 289 290 292 293 295 295 296 297 297 299 300 302 303 304 305 306 307 307 308 308 309 310 311 312 313 314 314 315 316 317 317 318 318 319 320 319 319 320 322 322 316 309 311 317 321 324 326 329 331 333 334 337 339 339
236 239 240 242 246 248 249 250 251 253 254 256 257 259 260 262 263 265 267 269 272 274 276 278 280 282 283 285 286 287 288 288 289 291 292 293 294 294 295 296 297 298 300 301 302 303 303 304 305 306 307 308 309 309 310 311 311 312 313 313 314 315 315 315 316 316 317 316 316 318 319 315 308 307 312 317 321 325 328 331 331 332 334 337 338
238 241 242 244 247 250 252 252 253 254 256 258 259 261 262 264 265 267 269 270 272 274 276 278 279 281 282 283 284 285 286 287 288 289 291 291 292 293 294 294 295 296 298 299 299 300 301 302 303 304 305 306 307 307 308 308 308 309 310 310 311 312 312 312 313 313 313 313 313 314 316 314 307 304 306 312 318 322 325 328 329 330 332 334 337
240 242 244 246 248 250 252 253 254 254 255 257 259 260 262 263 265 266 267 269 271 273 274 275 277 279 280 281 283 284 284 285 287 288 289 289 290 291 292 293 294 295 296 296 297 298 299 300 302 303 304 304 305 305 305 305 306 306 307 307 308 309 310 310 310 310 310 310 310 311 313 311 306 302 302 308 313 317 320 323 325 328 330 332 336
241 243 245 247 248 250 251 252 253 254 254 256 257 258 260 261 263 264 266 269 271 272 273 274 276 278 279 280 281 282 283 284 285 286 287 288 289 290 291 292 293 293 294 294 295 297 298 299 300 301 301 301 302 302 302 302 303 304 305 306 307 307 308 308 308 308 307 306 307 308 309 308 305 301 300 304 308 312 316 319 323 326 329 331 335
243 245 246 248 249 249 251 252 253 254 255 255 257 258 260 261 263 265 267 269 270 271 273 274 276 277 277 279 280 281 283 284 284 285 286 287 288 289 290 291 291 292 292 293 295 296 296 297 297 297 298 298 299 299 300 301 302 303 305 306 306 306 306 307 306 305 303 304 304 305 305 304 303 301 300 302 306 310 314 318 322 325 328 331 335
245 247 248 250 251 252 253 254 254 256 257 258 260 261 262 264 265 267 268 269 270 272 273 274 275 276 277 279 280 280 281 282 283 284 285 286 287 288 289 290 290 290 291 292 293 293 294 295 295 296 297 297 297 299 300 302 303 304 305 306 306 305 305 305 304 302 301 301 301 300 300 300 301 300 299 301 304 308 314 318 321 324 328 332 334
248 249 251 253 254 256 256 257 258 260 261 263 264 264 265 266 267 268 268 269 270 272 273 274 275 276 277 278 279 279 280 281 283 284 284 285 286 287 287 288 288 289 290 290 291 292 293 294 295 296 297 298 299 300 302 304 305 306 306 305 305 305 304 303 301 300 300 299 296 295 294 296 300 300 298 300 302 306 313 318 320 323 327 332 334
249 251 252 254 256 257 259 260 261 262 263 263 264 265 265 266 267 268 269 270 271 272 273 274 275 276 276 277 278 280 281 282 282 283 283 284 285 286 287 287 288 289 290 291 292 293 294 295 296 297 298 299 300 301 304 306 306 306 306 305 304 303 302 299 298 299 299 295 292 291 292 295 299 299 298 299 300 304 311 317 319 322 327 331 333
251 252 253 255 256 258 260 261 262 262 262 263 263 264 265 265 267 268 269 270 271 272 273 274 275 276 277 278 279 280 281 282 282 283 283 284 285 286 287 288 289 289 291 292 293 294 295 296 297 298 298 300 301 302 304 306 306 306 305 304 303 300 297 298 299 297 295 292 289 289 291 295 299 298 299 300 301 304 311 316 319 322 327 330 332
252 253 255 256 257 259 259 260 260 261 262 263 264 265 265 266 267 268 269 270 271 273 274 275 275 276 278 279 280 281 281 282 282 283 284 285 286 287 288 288 289 289 291 292 293 295 296 296 297 298 298 300 301 301 302 304 305 304 303 302 300 297 296 298 297 294 291 291 289 289 292 297 299 299 299 300 302 306 311 315 319 323 326 328 330
251 253 254 255 256 257 257 258 259 261 262 263 264 265 266 267 268 268 269 270 272 274 275 276 277 278 279 280 281 281 282 283 285 286 287 288 289 289 290 290 289 289 290 291 292 293 294 295 296 297 298 299 299 299 301 303 304 303 302 300 297 296 299 299 293 289 288 288 289 289 291 296 298 299 299 300 302 308 312 316 320 322 324 327 328
250 252 253 254 254 255 256 257 258 260 261 263 264 265 266 267 268 269 271 272 273 274 275 277 278 280 281 281 282 283 284 285 286 288 289 290 291 292 292 292 291 289 289 290 290 291 292 294 296 298 299 299 299 298 300 301 304 306 303 298 295 299 305 301 292 289 287 287 290 292 293 296 299 299 299 300 303 308 313 317 320 321 323 326 327
249 250 252 253 255 256 256 257 258 259 260 262 264 266 267 268 270 271 272 274 274 275 276 278 279 281 283 284 285 286 287 288 289 289 289 290 291 293 293 293 291 291 291 292 292 292 293 295 296 297 298 298 297 297 297 299 303 307 300 294 296 304 311 307 297 295 295 295 298 298 298 301 303 302 302 302 304 309 313 316 318 320 322 325 326
251 251 253 255 256 258 258 258 258 259 261 262 264 266 268 269 271 272 274 275 276 276 278 279 281 283 285 286 288 289 290 292 292 292 292 292 293 293 292 291 291 292 293 293 294 293 293 293 294 295 296 296 296 296 296 297 303 303 295 295 303 309 316 315 304 298 297 299 302 303 302 303 305 305 305 304 305 309 313 314 316 318 321 323 324
254 255 256 258 259 260 261 261 261 261 262 263 265 267 268 270 272 273 275 276 278 279 281 282 283 285 287 289 290 292 293 294 295 294 294 294 294 294 294 293 292 292 292 293 293 292 292 292 293 293 294 296 296 296 293 293 296 295 293 300 306 307 312 316 310 302 300 301 303 304 304 304 304 306 305 304 307 310 312 313 315 316 319 320 321
257 259 260 261 262 263 264 264 266 266 267 267 268 270 271 273 275 276 278 279 281 282 284 286 287 288 289 290 291 293 294 295 295 295 295 295 296 296 297 297 296 294 292 292 291 290 291 290 290 291 294 295 294 292 290 289 291 294 297 299 299 298 299 302 303 302 302 303 304 305 305 303 301 302 302 303 308 311 311 312 313 314 316 317 318
258 260 262 264 265 265 266 268 269 270 272 272 272 273 274 276 277 278 279 280 281 283 284 286 288 289 290 291 291 292 293 293 293 293 294 296 297 298 298 298 298 296 293 291 290 289 288 286 286 288 288 286 286 289 292 293 292 293 293 294 293 291 290 291 292 293 294 295 298 300 302 300 299 298 297 299 304 308 308 309 310 312 314 315 315
258 260 262 264 266 267 268 269 271 272 273 274 275 276 277 278 279 279 279 280 281 282 283 285 286 287 289 289 290 291 291 291 291 292 294 296 297 297 298 298 298 298 296 294 292 290 288 286 285 283 279 280 286 291 292 291 290 289 288 288 288 288 289 289 289 289 289 288 289 291 292 293 294 294 293 295 298 302 303 305 308 310 312 312 313
259 260 261 262 264 266 268 269 271 272 273 275 276 277 278 279 279 280 280 281 281 282 283 284 285 286 287 288 289 290 290 290 290 291 294 295 295 295 296 296 297 298 298 297 294 292 291 289 286 285 286 290 292 291 290 289 289 288 288 288 287 288 289 290 290 291 292 290 289 288 285 285 287 287 287 290 294 297 300 304 307 309 309 309 310
260 260 261 261 263 264 266 268 270 271 273 274 275 277 277 278 278 279 280 281 281 282 283 284 285 286 287 288 288 289 289 289 290 291 293 293 293 294 294 294 294 295 296 296 294 292 291 291 289 290 294 294 291 290 290 289 288 287 288 289 289 289 290 291 292 294 294 292 292 291 284 280 284 285 285 288 293 295 299 303 306 307 307 307 308
260 261 262 263 264 265 266 268 269 271 272 274 275 276 277 277 278 279 279 280 280 281 282 284 285 286 287 288 288 288 289 289 290 291 292 292 291 292 292 292 292 292 293 293 291 290 290 290 290 291 292 291 288 287 287 286 285 286 288 289 291 291 292 293 294 295 293 290 291 292 284 277 281 285 286 289 292 294 298 303 305 305 306 307 308
260 261 262 264 265 266 268 269 271 272 273 275 276 277 278 279 280 281 281 281 282 283 284 285 285 286 287 287 288 288 289 289 290 291 292 292 292 292 292 291 290 290 289 289 288 287 285 283 283 284 286 288 288 288 287 287 288 289 290 292 294 295 294 295 296 298 297 293 289 288 284 279 280 284 286 288 291 294 299 303 305 305 307 308 308
261 262 263 265 266 268 269 271 272 273 275 276 277 278 279 281 282 282 283 284 285 285 286 287 287 287 288 288 289 289 289 289 291 292 294 295 295 295 294 292 289 287 286 285 284 284 282 280 279 280 284 287 288 288 290 292 294 294 294 295 296 295 294 296 298 301 304 298 288 284 285 285 285 287 288 289 291 295 300 303 304 306 308 309 309
262 263 265 266 267 269 270 272 273 274 276 277 278 279 280 281 282 283 284 284 285 286 287 288 289 289 289 289 289 289 289 290 291 293 295 296 297 298 298 296 291 287 284 283 282 282 282 281 281 282 285 286 284 285 288 291 292 294 295 297 298 295 293 293 293 296 299 295 285 281 285 287 287 289 290 289 291 295 299 302 304 306 309 309 309
262 264 265 266 268 269 270 272 273 275 276 277 278 279 280 281 282 282 283 284 285 286 287 288 289 289 289 289 289 288 289 289 290 292 294 295 297 298 300 299 295 289 285 283 281 280 280 281 282 285 287 285 282 282 283 282 281 281 284 288 289 286 285 286 289 292 294 289 279 279 286 287 285 286 287 288 290 294 297 300 302 305 308 308 308
263 264 265 266 268 269 270 272 273 274 275 276 278 279 279 280 281 282 283 284 285 285 286 287 287 287 288 289 289 289 289 289 289 291 293 295 298 300 301 300 296 291 287 283 279 278 278 279 282 285 285 283 282 281 279 278 275 270 270 272 273 274 278 282 286 289 288 281 273 277 284 286 283 282 285 288 290 292 295 298 301 304 306 306 306
263 264 265 267 268 269 271 272 273 274 275 276 277 279 279 280 281 281 282 283 284 285 285 286 286 287 288 290 290 291 291 289 289 291 293 297 300 303 304 302 296 289 285 282 279 278 279 279 282 284 281 282 284 280 276 278 274 266 263 262 263 267 274 279 282 283 278 271 272 277 281 283 282 281 285 288 290 291 294 297 300 302 303 304 305
262 264 265 266 268 269 270 272 273 274 275 276 277 278 279 280 281 282 282 283 283 284 285 285 286 287 289 290 290 290 290 288 289 292 295 298 303 305 306 304 296 286 282 280 279 279 281 283 285 284 280 285 291 286 281 280 277 271 268 263 261 264 266 266 269 270 264 265 273 278 280 283 283 283 285 288 288 290 293 296 298 300 301 303 304
263 264 265 267 268 269 270 271 272 273 274 275 277 278 279 280 281 282 283 284 284 286 286 285 285 286 287 287 288 290 291 291 293 293 294 299 305 307 308 307 298 283 277 278 278 279 282 284 284 283 283 289 294 291 287 284 278 274 271 262 259 264 263 255 254 256 258 264 273 278 282 285 285 284 284 285 285 288 291 294 296 298 299 301 302
264 265 266 267 268 269 270 270 271 272 274 275 276 277 278 279 281 283 284 285 286 288 287 285 284 284 284 284 287 290 293 296 298 295 293 300 306 307 307 307 297 279 272 275 275 276 279 280 279 278 281 287 291 289 287 283 273 267 264 255 252 261 263 254 250 254 260 266 271 275 281 287 288 287 286 284 284 286 289 292 295 297 297 298 300
264 265 266 267 268 269 269 270 271 273 274 274 275 276 277 279 280 283 284 284 286 287 286 284 283 282 282 285 288 290 292 296 299 298 296 300 304 304 305 306 296 278 271 272 272 273 276 276 274 275 278 283 287 287 286 278 262 254 256 250 247 253 257 252 250 255 262 266 269 275 282 288 290 291 291 289 287 288 289 291 293 293 294 296 298
263 264 265 266 267 268 270 270 272 272 273 274 275 277 278 279 280 282 283 283 284 285 284 282 282 282 283 285 288 289 289 292 297 298 298 300 302 302 302 303 296 282 273 271 271 273 273 270 272 276 278 279 280 282 282 271 250 242 247 249 248 250 251 248 249 256 263 268 273 279 285 288 289 291 293 293 291 289 289 289 289 290 291 293 296
262 264 265 266 267 268 269 270 271 272 274 275 276 277 278 279 280 280 281 282 283 282 281 281 281 282 283 285 286 287 288 290 293 296 297 298 300 301 300 300 296 286 277 272 271 272 268 263 265 271 274 272 267 262 263 263 251 244 248 253 256 255 251 249 253 261 268 274 279 283 284 285 286 289 292 292 289 288 287 287 287 288 289 291 293
262 263 264 265 266 267 269 270 272 273 274 275 275 276 278 278 278 278 279 279 280 281 280 280 281 281 282 284 284 285 287 289 291 294 295 296 299 301 299 297 295 288 279 273 271 270 267 262 261 264 267 264 252 241 243 257 263 260 259 263 267 265 259 257 260 266 271 276 279 280 280 280 281 284 287 288 286 285 285 285 286 287 288 290 291
262 263 264 265 267 268 270 271 272 273 273 274 275 276 276 276 276 277 277 277 278 279 280 281 282 282 283 283 284 284 286 288 290 291 293 296 299 300 298 296 295 289 280 273 270 268 266 263 260 261 261 252 236 229 239 255 262 266 267 268 270 272 269 266 264 266 270 274 275 275 276 277 278 280 284 284 283 282 283 284 285 287 288 289 290
263 264 265 267 268 269 270 271 271 272 273 273 274 274 274 274 274 275 275 276 277 279 280 281 282 283 284 284 285 285 287 287 288 290 293 297 299 300 298 296 295 291 282 273 267 264 263 261 258 259 257 246 235 234 238 234 234 245 249 247 246 251 257 261 262 264 268 271 270 270 272 274 276 279 282 282 281 281 282 283 285 286 287 288 289
266 267 268 269 269 269 269 269 270 271 271 271 272 272 272 272 272 273 274 275 276 277 278 280 281 283 284 285 286 287 287 287 288 291 294 297 299 298 297 296 296 293 287 276 267 262 261 260 258 256 253 247 242 239 231 220 222 229 230 227 227 233 244 254 258 261 263 264 264 267 270 273 275 278 279 279 279 280 281 282 284 285 287 287 287
269 268 268 268 268 268 268 268 269 269 270 270 270 270 269 270 271 272 273 274 276 277 278 279 280 282 284 286 287 288 288 288 290 292 295 297 298 297 297 297 297 296 292 283 270 261 258 259 259 257 251 246 243 238 227 218 219 222 220 219 222 230 242 252 256 257 259 260 261 266 270 273 274 276 277 277 279 280 281 282 284 285 285 285 285
267 264 263 263 265 266 268 269 270 270 270 270 270 270 270 270 271 272 274 276 277 279 280 280 282 283 285 287 289 289 289 289 291 293 295 296 297 297 297 297 296 296 295 289 277 265 257 257 259 257 250 243 241 237 229 222 220 221 220 220 225 233 244 253 256 257 259 261 263 267 270 272 273 274 275 277 279 279 280 281 282 281 281 282 282
264 263 262 262 263 265 266 268 269 270 271 271 272 272 273 273 274 276 277 279 280 281 282 284 285 286 288 289 289 290 289 290 291 293 294 295 296 297 297 296 295 295 295 292 284 272 261 256 258 258 252 242 237 235 231 225 224 226 229 231 235 243 251 256 257 259 261 263 264 266 269 270 271 273 274 275 276 276 277 277 277 278 279 280 281
263 263 263 263 263 264 265 267 268 270 271 272 273 274 275 276 277 278 280 281 282 284 285 286 286 287 288 289 289 289 289 290 290 291 292 293 294 296 296 296 295 295 294 293 289 281 270 260 257 258 256 248 240 235 232 229 228 232 237 241 246 252 255 257 257 258 259 260 262 264 265 267 269 270 271 272 272 273 274 274 275 276 278 279 281
262 262 263 264 265 266 267 268 269 271 272 273 274 275 276 277 278 280 281 282 283 284 284 285 286 286 287 287 287 287 288 288 288 289 290 291 293 295 296 296 295 295 295 294 292 288 280 269 260 257 258 255 248 240 235 232 232 235 239 245 251 255 257 258 257 257 257 258 260 261 263 265 266 267 268 269 270 271 273 274 275 277 278 280 282
262 262 263 264 265 266 268 269 270 271 271 272 273 274 275 277 278 279 280 281 282 283 283 284 284 285 285 286 286 286 286 287 287 289 290 291 293 295 295 295 294 295 295 294 293 291 287 280 269 261 258 258 256 250 243 238 237 238 241 246 252 257 261 262 262 261 260 260 261 262 263 264 265 267 268 269 270 272 273 275 276 278 280 281 284
Height
10969 10971 10973 10975 10977 10978 10980 10981 10983 10984 10984 10985 10986 10987 10988 10989 10989 10989 10989 10989 10989 10989 10989 10990 10990 10990 10990 10990 10991 10991 10990 10990 10989 10988 10988 10987 10986 10986 10985 10983 10982 10981 10980 10978 10977 10975 10974 10973 10971 10970 10968 10966 10964 10962 10961 10959 10957 10955 10954 10952 10950 10948 10946 10944 10942 10939 10937 10935 10933 10930 10928 10926 10924 10922 10919 10917 10914 10912 10909 10906 10904 10901 10898 10895 10891
10966 10968 10970 10972 10973 10975 10977 10978 10979 10980 10981 10982 10983 10984 10985 10986 10986 10986 10986 10986 10986 10986 10987 10987 10987 10987 10987 10987 10988 10988 10988 10987 10986 10985 10985 10984 10983 10983 10982 10980 10979 10978 10977 10976 10974 10973 10971 10969 10968 10967 10965 10963 10961 10959 10957 10956 10954 10952 10951 10949 10947 10945 10942 10941 10939 10937 10934 10932 10929 10927 10926 10924 10921 10919 10917 10914 10912 10909 10907 10904 10901 10898 10896 10893 10889
10964 10966 10968 10969 10970 10972 10973 10974 10975 10977 10978 10979 10980 10982 10982 10983 10983 10983 10983 10983 10983 10983 10984 10984 10984 10985 10984 10984 10985 10985 10984 10984 10983 10982 10982 10982 10980 10979 10979 10978 10976 10975 10973 10972 10971 10969 10968 10966 10965 10963 10962 10960 10958 10956 10954 10952 10950 10949 10947 10945 10943 10941 10939 10937 10935 10933 10931 10929 10926 10924 10922 10920 10918 10915 10913 10911 10908 10906 10903 10900 10898 10895 10892 10889 10886
10962 10964 10965 10966 10968 10969 10969 10970 10971 10973 10974 10975 10977 10978 10979 10979 10979 10979 10979 10980 10980 10980 10981 10981 10981 10982 10982 10981 10981 10981 10981 10980 10980 10980 10979 10978 10977 10976 10975 10974 10973 10971 10970 10968 10967 10966 10964 10962 10961 10959 10958 10956 10955 10953 10951 10949 10947 10945 10943 10941 10939 10937 10935 10933 10930 10928 10927 10925 10923 10921 10919 10917 10914 10912 10910 10907 10905 10902 10899 10896 10894 10891 10888 10885 10882
10959 10960 10962 10964 10965 10965 10966 10967 10968 10969 10970 10972 10974 10975 10975 10975 10976 10976 10976 10976 10976 10976 10977 10977 10978 10978 10978 10978 10978 10978 10978 10977 10977 10976 10976 10975 10974 10973 10972 10971 10969 10968 10966 10964 10963 10962 10960 10959 10957 10956 10954 10952 10951 10949 10947 10945 10944 10941 10939 10937 10935 10933 10931 10929 10926 10924 10922 10921 10919 10917 10915 10913 10910 10908 10906 10904 10901 10898 10896 10893 10890 10887 10884 10881 10878
10955 10956 10958 10960 10960 10961 10962 10963 10964 10966 10968 10969 10970 10971 10971 10971 10972 10972 10973 10972 10972 10973 10973 10974 10974 10974 10975 10975 10975 10974 10974 10974 10973 10972 10972 10972 10971 10970 10968 10967 10966 10964 10962 10960 10959 10957 10956 10955 10953 10952 10950 10948 10946 10945 10943 10941 10940 10938 10936 10934 10931 10929 10926 10924 10923 10920 10917 10916 10915 10913 10911 10909 10906 10904 10902 10900 10897 10894 10892 10889 10886 10883 10879 10876 10872
10950 10952 10954 10955 10956 10957 10959 10960 10962 10964 10966 10966 10967 10967 10968 10968 10969 10969 10969 10969 10969 10969 10970 10970 10971 10971 10972 10972 10971 10971 10971 10970 10969 10969 10968 10968 10967 10966 10965 10963 10961 10960 10958 10957 10955 10953 10951 10950 10949 10947 10945 10944 10942 10940 10938 10937 10935 10933 10932 10930 10927 10925 10922 10920 10918 10916 10913 10911 10910 10909 10907 10904 10902 10900 10898 10896 10893 10891 10888 10885 10882 10879 10875 10871 10867
10946 10948 10950 10952 10952 10953 10955 10958 10960 10962 10963 10963 10963 10964 10965 10965 10966 10966 10966 10966 10966 10966 10967 10967 10968 10968 10968 10968 10968 10968 10967 10966 10965 10965 10965 10964 10963 10962 10961 10959 10957 10956 10954 10953 10951 10948 10946 10945 10944 10942 10940 10939 10937 10935 10933 10931 10930 10928 10927 10925 10923 10921 10918 10915 10913 10912 10909 10906 10904 10904 10902 10900 10898 10897 10895 10892 10890 10887 10884 10881 10878 10875 10872 10867 10862
10943 10944 10947 10948 10948 10950 10952 10955 10957 10959 10959 10959 10959 10961 10961 10962 10962 10963 10963 10963 10963 10963 10964 10964 10964 10964 10964 10965 10964 10963 10962 10961 10961 10961 10960 10960 10958 10957 10956 10955 10953 10952 10950 10948 10946 10944 10942 10940 10939 10937 10935 10934 10932 10930 10928 10926 10924 10923 10920 10919 10918 10916 10913 10910 10908 10906 10904 10902 10899 10898 10897 10895 10894 10892 10891 10888 10886 10883 10881 10877 10874 10871 10868 10864 10859
10939 10940 10942 10944 10945 10947 10949 10951 10953 10954 10954 10954 10955 10956 10957 10958 10958 10959 10959 10959 10960 10960 10960 10960 10960 10960 10960 10960 10960 10959 10958 10957 10957 10956 10956 10955 10953 10952 10951 10950 10949 10947 10946 10944 10942 10940 10938 10936 10934 10932 10930 10928 10927 10925 10923 10920 10918 10917 10915 10912 10911 10910 10908 10905 10903 10901 10898 10896 10894 10892 10891 10890 10889 10888 10886 10884 10882 10879 10876 10873 10870 10867 10863 10860 10856
10934 10936 10937 10939 10941 10943 10944 10946 10948 10950 10950 10950 10951 10952 10953 10953 10954 10954 10955 10955 10956 10957 10956 10956 10956 10956 10956 10956 10955 10954 10953 10952 10952 10952 10951 10950 10949 10947 10946 10945 10944 10942 10940 10939 10937 10935 10934 10932 10930 10927 10925 10922 10921 10919 10917 10914 10911 10910 10909 10906 10904 10904 10902 10900 10897 10895 10892 10891 10889 10887 10886 10884 10883 10882 10881 10880 10878 10875 10872 10870 10866 10863 10860 10856 10852
10929 10931 10933 10935 10937 10938 10940 10942 10944 10944 10945 10946 10947 10948 10949 10949 10949 10950 10951 10952 10952 10952 10951 10951 10952 10952 10952 10951 10951 10950 10948 10947 10947 10946 10946 10945 10944 10942 10941 10940 10938 10936 10935 10933 10932 10931 10929 10927 10925 10923 10919 10916 10914 10913 10910 10908 10906 10903 10902 10900 10898 10896 10896 10894 10892 10889 10887 10885 10883 10882 10880 10879 10877 10877 10876 10875 10874 10871 10869 10866 10863 10859 10855 10851 10847
10925 10927 10929 10930 10931 10933 10935 10938 10939 10939 10940 10941 10942 10944 10944 10945 10945 10946 10947 10947 10947 10947 10947 10947 10947 10947 10946 10946 10945 10944 10943 10942 10941 10940 10940 10939 10939 10938 10936 10934 10932 10930 10929 10927 10926 10925 10923 10921 10919 10916 10914 10910 10907 10906 10904 10902 10900 10898 10895 10894 10892 10889 10888 10887 10886 10884 10882 10879 10878 10876 10875 10873 10872 10871 10870 10869 10868 10866 10864 10862 10859 10855 10850 10845 10842
10921 10922 10924 10925 10926 10928 10931 10933 10934 10934 10935 10937 10938 10939 10940 10940 10941 10941 10942 10942 10942 10941 10941 10941 10942 10941 10941 10940 10940 10939 10937 10936 10934 10934 10933 10933 10933 10932 10930 10928 10925 10924 10922 10921 10920 10918 10916 10914 10911 10909 10908 10904 10900 10899 10898 10896 10894 10892 10890 10887 10885 10883 10881 10880 10879 10878 10876 10874 10872 10871 10870 10868 10866 10866 10865 10864 10863 10861 10860 10857 10854 10850 10845 10840 10836
10917 10918 10919 10920 10921 10924 10926 10928 10929 10930 10931 10932 10933 10933 10934 10935 10935 10936 10936 10936 10936 10936 10936 10936 10936 10935 10935 10934 10933 10932 10932 10930 10929 10928 10927 10926 10926 10925 10924 10922 10919 10917 10915 10914 10913 10911 10909 10906 10904 10902 10901 10899 10894 10892 10893 10891 10888 10886 10884 10882 10880 10877 10875 10873 10872 10871 10871 10869 10867 10866 10864 10863 10861 10861 10860 10859 10858 10856 10855 10852 10849 10845 10840 10835 10830
10912 10913 10914 10916 10917 10919 10921 10923 10924 10925 10926 10926 10927 10927 10928 10928 10929 10929 10930 10930 10930 10930 10930 10930 10930 10929 10929 10928 10927 10926 10925 10925 10923 10921 10919 10919 10919 10919 10917 10916 10913 10910 10908 10907 10906 10904 10902 10900 10898 10896 10894 10893 10889 10886 10887 10887 10883 10880 10878 10877 10874 10872 10869 10867 10866 10866 10865 10863 10862 10861 10859 10858 10857 10856 10855 10853 10853 10851 10850 10847 10844 10840 10835 10830 10826
10907 10908 10909 10911 10913 10914 10916 10917 10918 10918 10919 10919 10920 10920 10921 10922 10923 10924 10924 10924 10924 10923 10923 10923 10923 10923 10922 10922 10921 10920 10919 10917 10916 10913 10912 10912 10912 10913 10912 10910 10908 10905 10902 10901 10900 10898 10896 10894 10892 10890 10888 10888 10885 10880 10880 10882 10880 10875 10873 10871 10869 10867 10864 10862 10861 10860 10859 10858 10857 10856 10855 10854 10852 10851 10850 10848 10847 10846 10844 10841 10838 10834 10829 10825 10822
10902 10903 10905 10907 10908 10909 10910 10911 10911 10911 10912 10913 10913 10914 10915 10916 10917 10918 10917 10917 10917 10917 10917 10916 10916 10916 10915 10915 10914 10913 10912 10910 10909 10907 10906 10905 10905 10906 10906 10905 10903 10900 10897 10897 10895 10892 10890 10887 10885 10884 10882 10882 10881 10876 10873 10875 10875 10872 10868 10865 10864 10861 10859 10858 10856 10855 10855 10854 10853 10852 10850 10849 10848 10846 10845 10843 10842 10840 10838 10835 10832 10828 10823 10820 10816
10897 10899 10900 10902 10903 10903 10904 10904 10905 10906 10906 10906 10907 10908 10909 10910 10910 10911 10911 10911 10911 10911 10910 10909 10909 10909 10909 10908 10908 10906 10905 10904 10903 10901 10899 10898 10898 10898 10899 10898 10896 10894 10893 10892 10890 10888 10885 10881 10879 10878 10876 10876 10875 10872 10868 10867 10868 10867 10864 10861 10859 10856 10855 10855 10852 10850 10850 10850 10849 10848 10845 10844 10843 10841 10839 10838 10837 10835 10832 10829 10826 10822 10818 10814 10810
10893 10894 10895 10895 10897 10897 10898 10899 10900 10901 10901 10901 10901 10902 10902 10903 10904 10905 10905 10905 10906 10905 10905 10904 10903 10902 10902 10902 10901 10900 10899 10899 10898 10896 10893 10892 10891 10891 10892 10890 10888 10887 10887 10886 10884 10882 10879 10877 10875 10872 10870 10869 10868 10867 10864 10861 10861 10862 10860 10857 10855 10853 10853 10852 10848 10845 10845 10845 10845 10843 10841 10839 10838 10836 10834 10832 10831 10830 10827 10823 10820 10817 10813 10809 10804
10888 10889 10889 10890 10891 10892 10893 10894 10896 10896 10896 10896 10896 10896 10897 10898 10899 10899 10899 10900 10900 10900 10899 10899 10898 10897 10897 10896 10895 10894 10893 10893 10893 10891 10888 10887 10885 10884 10884 10883 10880 10879 10880 10878 10877 10875 10874 10872 10871 10867 10864 10863 10862 10861 10860 10857 10856 10856 10855 10853 10851 10850 10850 10849 10845 10842 10841 10840 10839 10838 10836 10834 10833 10831 10829 10827 10825 10824 10820 10817 10814 10811 10807 10803 10798
10882 10883 10884 10885 10886 10886 10887 10889 10890 10891 10892 10892 10892 10892 10892 10893 10894 10894 10894 10894 10894 10894 10894 10894 10894 10893 10892 10891 10890 10889 10888 10888 10887 10885 10882 10881 10879 10878 10877 10876 10874 10873 10873 10871 10869 10868 10867 10866 10865 10863 10860 10857 10856 10855 10854 10853 10852 10851 10850 10849 10848 10846 10846 10847 10844 10839 10837 10835 10833 10832 10831 10829 10828 10826 10824 10822 10820 10818 10815 10812 10808 10805 10802 10799 10794
10877 10878 10879 10880 10881 10881 10882 10883 10884 10886 10886 10887 10887 10887 10887 10888 10889 10889 10889 10889 10889 10889 10889 10889 10890 10889 10888 10886 10885 10884 10883 10882 10881 10879 10876 10874 10873 10871 10870 10869 10869 10867 10867 10865 10862 10860 10859 10859 10858 10857 10855 10853 10850 10849 10849 10848 10847 10846 10845 10845 10844 10843 10843 10843 10841 10838 10835 10832 10829 10827 10826 10824 10823 10821 10819 10818 10816 10813 10810 10807 10804 10800 10798 10795 10790
10872 10873 10873 10875 10876 10876 10876 10877 10878 10879 10880 10881 10882 10882 10883 10884 10885 10885 10885 10884 10884 10884 10883 10884 10884 10883 10882 10881 10880 10879 10878 10876 10875 10872 10869 10868 10867 10865 10863 10862 10862 10861 10861 10860 10856 10853 10853 10852 10852 10852 10851 10848 10845 10843 10842 10842 10841 10841 10840 10839 10839 10838 10838 10838 10837 10834 10832 10830 10826 10823 10821 10818 10817 10816 10814 10813 10812 10808 10805 10802 10799 10796 10793 10790 10786
10867 10867 10868 10869 10870 10871 10871 10872 10872 10873 10874 10875 10876 10876 10877 10878 10879 10879 10879 10879 10879 10879 10878 10878 10878 10877 10876 10876 10875 10873 10872 10870 10868 10866 10864 10862 10860 10859 10857 10855 10855 10854 10854 10852 10849 10846 10846 10846 10846 10847 10845 10842 10839 10837 10836 10835 10833 10833 10833 10831 10830 10829 10829 10831 10830 10828 10827 10826 10823 10820 10817 10814 10812 10811 10809 10807 10806 10804 10800 10797 10795 10792 10789 10786 10782
10862 10863 10863 10864 10864 10865 10866 10866 10866 10867 10868 10869 10869 10869 10871 10872 10872 10872 10872 10873 10873 10873 10873 10873 10873 10872 10871 10870 10869 10867 10866 10863 10861 10860 10860 10857 10855 10852 10850 10848 10847 10846 10845 10844 10840 10838 10838 10838 10839 10839 10837 10834 10831 10829 10827 10825 10823 10823 10824 10824 10823 10821 10821 10822 10822 10820 10819 10819 10818 10815 10813 10810 10808 10806 10804 10802 10801 10799 10796 10793 10790 10788 10785 10781 10777
10856 10857 10858 10858 10859 10860 10860 10860 10860 10861 10861 10862 10863 10863 10864 10865 10865 10865 10865 10866 10867 10867 10867 10867 10867 10866 10865 10864 10862 10861 10859 10857 10855 10855 10856 10854 10849 10846 10844 10842 10839 10838 10838 10836 10832 10829 10830 10831 10831 10830 10830 10827 10823 10819 10818 10817 10815 10815 10816 10817 10816 10815 10814 10814 10815 10813 10811 10811 10810 10809 10807 10805 10803 10801 10798 10797 10796 10793 10791 10788 10785 10783 10781 10777 10773
10849 10850 10851 10852 10853 10854 10854 10854 10854 10854 10855 10855 10856 10857 10857 10858 10858 10858 10858 10859 10859 10859 10860 10860 10860 10860 10859 10858 10857 10855 10853 10851 10849 10849 10851 10850 10845 10841 10839 10836 10833 10832 10831 10828 10824 10822 10823 10823 10822 10823 10823 10820 10815 10811 10810 10809 10807 10807 10808 10809 10809 10808 10807 10807 10808 10807 10804 10803 10802 10802 10800 10798 10796 10794 10792 10791 10790 10788 10785 10783 10780 10778 10776 10772 10768
10842 10843 10844 10845 10845 10846 10847 10847 10847 10847 10847 10848 10849 10849 10849 10849 10850 10851 10852 10851 10851 10852 10853 10853 10853 10853 10852 10851 10850 10849 10847 10845 10843 10843 10843 10843 10840 10836 10833 10831 10828 10826 10824 10821 10818 10817 10817 10817 10816 10816 10812 10807 10803 10802 10801 10800 10799 10800 10801 10802 10802 10802 10801 10801 10801 10800 10797 10795 10796 10795 10793 10792 10790 10788 10786 10786 10785 10782 10780 10778 10775 10772 10770 10767 10763
10835 10836 10836 10837 10837 10838 10838 10839 10840 10839 10839 10840 10841 10841 10841 10841 10842 10843 10843 10843 10843 10844 10845 10845 10845 10845 10844 10843 10842 10842 10840 10837 10836 10835 10835 10834 10832 10829 10826 10824 10821 10819 10816 10813 10811 10811 10811 10810 10810 10806 10798 10792 10792 10793 10793 10793 10794 10794 10795 10796 10796 10795 10794 10794 10794 10793 10791 10790 10790 10789 10786 10785 10784 10783 10782 10781 10779 10777 10775 10772 10769 10767 10765 10762 10759
10828 10828 10829 10829 10830 10830 10831 10831 10831 10831 10831 10832 10834 10834 10833 10833 10834 10834 10834 10834 10834 10834 10835 10835 10835 10835 10835 10834 10833 10832 10831 10829 10827 10825 10824 10823 10822 10820 10818 10815 10813 10811 10808 10805 10804 10803 10800 10799 10799 10796 10790 10786 10786 10786 10786 10787 10789 10789 10790 10790 10790 10789 10788 10787 10788 10787 10786 10785 10785 10783 10780 10778 10778 10777 10777 10775 10773 10772 10770 10767 10764 10762 10759 10756 10754
10820 10820 10821 10821 10822 10822 10823 10823 10824 10823 10823 10824 10826 10826 10826 10825 10826 10826 10826 10825 10825 10825 10825 10824 10825 10825 10825 10824 10823 10821 10820 10819 10818 10816 10814 10813 10812 10811 10809 10806 10804 10802 10799 10797 10797 10794 10789 10786 10787 10788 10785 10783 10782 10781 10782 10784 10784 10784 10784 10784 10783 10782 10782 10781 10781 10780 10780 10780 10779 10777 10774 10773 10772 10771 10770 10769 10767 10767 10766 10762 10758 10756 10754 10750 10748
10813 10813 10813 10814 10814 10814 10815 10815 10816 10816 10815 10816 10817 10818 10819 10819 10818 10818 10817 10817 10818 10817 10817 10816 10816 10816 10815 10815 10814 10812 10810 10810 10809 10808 10807 10805 10804 10803 10800 10797 10794 10791 10789 10789 10788 10786 10781 10778 10779 10779 10779 10779 10777 10776 10778 10779 10780 10781 10782 10782 10778 10774 10772 10774 10774 10773 10772 10772 10772 10771 10768 10767 10766 10765 10764 10763 10762 10761 10760 10757 10752 10751 10749 10745 10743
10804 10804 10805 10806 10806 10806 10807 10807 10808 10808 10808 10808 10809 10810 10811 10812 10812 10810 10810 10810 10810 10809 10809 10809 10808 10808 10808 10807 10805 10804 10803 10801 10800 10800 10799 10798 10796 10794 10792 10789 10785 10781 10779 10779 10778 10776 10774 10773 10773 10772 10772 10772 10772 10771 10770 10770 10772 10773 10775 10775 10771 10765 10762 10764 10766 10765 10764 10764 10765 10764 10762 10761 10760 10759 10758 10758 10756 10754 10754 10751 10747 10745 10744 10741 10739
10796 10796 10797 10797 10798 10798 10798 10798 10799 10800 10800 10800 10801 10802 10802 10803 10803 10803 10803 10803 10802 10801 10801 10800 10800 10800 10800 10799 10798 10797 10795 10794 10793 10792 10791 10790 10788 10786 10783 10781 10776 10772 10769 10768 10767 10766 10765 10766 10766 10765 10765 10765 10765 10764 10762 10761 10761 10761 10762 10763 10762 10760 10758 10758 10758 10759 10759 10759 10759 10758 10756 10756 10755 10753 10752 10752 10751 10748 10747 10745 10742 10740 10739 10737 10735
10787 10788 10789 10789 10790 10790 10790 10790 10791 10791 10791 10791 10792 10793 10793 10793 10794 10794 10794 10794 10794 10793 10792 10792 10792 10792 10792 10791 10790 10789 10788 10786 10785 10785 10784 10783 10780 10777 10775 10772 10767 10763 10760 10758 10758 10757 10757 10757 10757 10757 10757 10757 10757 10755 10754 10753 10753 10753 10755 10757 10758 10758 10758 10758 10757 10756 10756 10755 10753 10752 10750 10750 10749 10747 10746 10746 10744 10741 10740 10739 10737 10735 10733 10731 10730
10779 10780 10781 10781 10781 10781 10781 10782 10782 10782 10782 10782 10783 10784 10784 10784 10784 10784 10784 10784 10785 10785 10784 10784 10784 10784 10784 10784 10783 10782 10780 10778 10777 10777 10777 10775 10772 10769 10766 10763 10758 10754 10751 10750 10750 10750 10750 10749 10748 10748 10748 10749 10750 10749 10747 10746 10747 10749 10752 10756 10757 10756 10756 10758 10757 10754 10752 10749 10747 10745 10744 10743 10742 10741 10739 10738 10736 10734 10733 10732 10731 10730 10727 10725 10723
10769 10770 10771 10772 10772 10772 10772 10772 10772 10773 10774 10774 10774 10775 10775 10775 10775 10775 10775 10775 10776 10776 10776 10776 10776 10776 10776 10777 10776 10774 10772 10771 10770 10770 10770 10768 10765 10762 10759 10755 10751 10747 10744 10744 10744 10744 10744 10743 10741 10740 10740 10742 10744 10744 10741 10739 10740 10743 10748 10753 10753 10751 10751 10754 10753 10750 10746 10743 10741 10738 10736 10736 10735 10734 10732 10731 10729 10728 10726 10726 10725 10723 10721 10719 10717
10760 10761 10761 10761 10761 10761 10762 10762 10763 10764 10765 10765 10766 10766 10766 10767 10767 10767 10767 10767 10767 10767 10768 10768 10768 10768 10768 10769 10768 10767 10765 10764 10763 10763 10763 10761 10758 10756 10753 10750 10745 10741 10739 10738 10738 10739 10739 10737 10735 10735 10735 10736 10737 10737 10735 10733 10734 10737 10742 10746 10746 10745 10746 10747 10745 10742 10738 10735 10733 10732 10730 10729 10728 10726 10725 10724 10723 10721 10720 10719 10718 10717 10714 10712 10711
10750 10751 10752 10752 10751 10751 10752 10753 10753 10754 10755 10756 10757 10757 10757 10757 10758 10758 10758 10758 10758 10759 10759 10759 10759 10758 10759 10760 10760 10759 10758 10756 10755 10755 10755 10754 10752 10749 10747 10745 10742 10737 10734 10732 10731 10732 10733 10732 10730 10731 10731 10731 10731 10731 10730 10729 10730 10732 10735 10737 10738 10738 10739 10738 10735 10732 10729 10728 10727 10725 10723 10722 10721 10720 10718 10718 10717 10715 10714 10713 10712 10711 10708 10706 10704
10741 10742 10742 10742 10742 10742 10742 10743 10744 10744 10746 10747 10747 10747 10747 10748 10748 10748 10749 10749 10749 10750 10750 10750 10749 10749 10749 10751 10751 10751 10749 10748 10747 10746 10746 10746 10746 10743 10740 10739 10737 10733 10729 10726 10725 10726 10727 10727 10727 10727 10727 10728 10728 10727 10725 10724 10725 10726 10728 10729 10729 10730 10730 10728 10725 10723 10721 10720 10719 10717 10716 10715 10715 10713 10712 10712 10711 10710 10708 10707 10706 10704 10702 10699 10697
10732 10732 10732 10732 10733 10733 10734 10734 10735 10735 10736 10736 10737 10738 10738 10738 10738 10739 10739 10740 10740 10740 10740 10740 10740 10741 10741 10742 10742 10742 10741 10740 10739 10738 10737 10737 10737 10737 10734 10732 10730 10728 10723 10719 10718 10719 10719 10719 10722 10723 10724 10724 10724 10722 10719 10718 10719 10720 10722 10724 10724 10724 10724 10721 10718 10715 10713 10712 10712 10710 10709 10709 10708 10707 10707 10706 10704 10703 10702 10700 10699 10697 10695 10693 10690
10721 10721 10722 10723 10723 10724 10724 10725 10725 10725 10725 10726 10726 10727 10728 10728 10729 10729 10729 10730 10731 10731 10731 10731 10732 10732 10732 10733 10733 10733 10732 10731 10730 10729 10728 10727 10727 10727 10727 10725 10722 10720 10717 10713 10711 10710 10711 10712 10715 10717 10718 10719 10719 10715 10712 10712 10714 10717 10719 10721 10721 10722 10719 10715 10710 10708 10707 10706 10705 10704 10703 10702 10702 10701 10701 10699 10697 10696 10694 10693 10692 10690 10688 10685 10682
10712 10712 10713 10714 10714 10714 10714 10714 10715 10715 10715 10715 10716 10717 10718 10719 10719 10720 10720 10720 10720 10721 10722 10722 10722 10723 10723 10723 10723 10723 10723 10722 10721 10720 10719 10717 10716 10716 10717 10715 10713 10711 10709 10706 10704 10702 10702 10703 10707 10711 10712 10712 10711 10708 10705 10705 10709 10713 10716 10718 10719 10717 10712 10707 10703 10702 10700 10699 10698 10697 10696 10695 10695 10694 10693 10690 10689 10688 10686 10685 10683 10682 10679 10677 10674
10702 10703 10703 10703 10703 10703 10703 10704 10705 10705 10705 10706 10707 10707 10708 10709 10710 10710 10710 10710 10710 10711 10711 10712 10712 10713 10713 10712 10712 10712 10712 10712 10711 10709 10708 10707 10706 10706 10706 10705 10703 10702 10700 10698 10696 10695 10693 10693 10698 10703 10705 10704 10703 10701 10699 10698 10700 10703 10707 10710 10710 10706 10700 10696 10695 10694 10693 10691 10690 10690 10689 10687 10686 10686 10684 10682 10681 10680 10678 10676 10675 10673 10671 10668 10666
10693 10693 10692 10692 10691 10692 10692 10693 10695 10696 10696 10697 10698 10698 10699 10699 10699 10700 10700 10699 10699 10699 10700 10700 10701 10702 10702 10702 10701 10701 10701 10701 10700 10699 10697 10696 10695 10695 10696 10695 10694 10692 10691 10689 10688 10687 10685 10684 10687 10692 10696 10696 10695 10695 10693 10690 10690 10693 10696 10697 10695 10692 10688 10687 10687 10686 10685 10684 10683 10682 10681 10679 10678 10677 10675 10673 10672 10672 10670 10668 10666 10665 10662 10660 10657
10684 10683 10682 10682 10682 10683 10683 10684 10685 10685 10686 10687 10688 10688 10688 10689 10689 10689 10689 10689 10689 10688 10687 10688 10689 10690 10690 10690 10690 10689 10690 10690 10690 10689 10687 10685 10683 10684 10686 10686 10685 10683 10682 10681 10680 10679 10679 10676 10677 10681 10686 10688 10687 10687 10686 10684 10682 10683 10684 10683 10681 10679 10679 10679 10679 10678 10677 10676 10675 10674 10672 10670 10669 10668 10666 10665 10664 10663 10661 10659 10657 10655 10653 10651 10648
10674 10673 10673 10674 10674 10674 10674 10674 10675 10675 10675 10676 10676 10677 10677 10677 10678 10678 10678 10678 10677 10676 10676 10676 10676 10677 10678 10678 10678 10678 10678 10679 10679 10679 10676 10673 10673 10674 10676 10676 10675 10673 10672 10671 10670 10670 10671 10669 10667 10669 10674 10677 10678 10678 10678 10676 10674 10673 10672 10672 10671 10671 10671 10671 10669 10669 10668 10667 10665 10664 10663 10661 10660 10658 10657 10656 10655 10653 10651 10650 10648 10646 10644 10642 10639
10665 10664 10664 10665 10665 10665 10664 10664 10664 10664 10664 10664 10664 10664 10665 10665 10666 10666 10666 10666 10665 10664 10664 10664 10664 10665 10666 10666 10667 10667 10667 10667 10668 10669 10666 10663 10662 10664 10666 10666 10665 10663 10662 10661 10660 10660 10660 10660 10658 10657 10659 10663 10666 10667 10667 10667 10664 10662 10662 10662 10662 10662 10662 10661 10660 10660 10659 10657 10656 10654 10653 10652 10650 10648 10647 10646 10645 10643 10641 10640 10638 10636 10634 10632 10630
10655 10655 10655 10655 10655 10654 10653 10653 10653 10654 10654 10653 10652 10652 10652 10653 10653 10654 10654 10654 10654 10653 10653 10653 10653 10654 10654 10654 10655 10656 10657 10656 10657 10658 10657 10653 10651 10652 10654 10655 10654 10652 10651 10651 10650 10649 10649 10649 10648 10645 10645 10647 10651 10654 10655 10655 10653 10652 10651 10650 10650 10650 10650 10650 10650 10649 10648 10646 10645 10644 10642 10641 10640 10638 10637 10636 10635 10633 10631 10629 10628 10626 10624 10623 10621
10644 10644 10644 10643 10643 10643 10642 10642 10642 10642 10642 10642 10641 10641 10641 10641 10642 10642 10642 10642 10642 10642 10642 10642 10642 10642 10642 10642 10643 10644 10645 10645 10645 10646 10646 10643 10641 10640 10641 10642 10642 10641 10641 10640 10639 10638 10637 10636 10635 10634 10633 10633 10635 10638 10641 10641 10641 10640 10640 10638 10636 10636 10637 10637 10637 10636 10635 10634 10633 10632 10631 10630 10629 10628 10626 10625 10624 10622 10621 10619 10618 10616 10615 10613 10611